Voltar ao catálogo

STARLINK-30777

AtivoComunicaçõesVLEO
NORAD 58233·PAYLOAD·🇺🇸 United States

Lançado Nov 8, 2023 de Cape Canaveral Space Force Station

Loading…

Próximas Passagens (próximas 24 horas)

TLE

AtualizadoSource: CelesTrak SupGP

Época: Sep 15, 2026, 02:46 UTC

1 58233C 23171D   26258.11576389  .00021249  00000+0  76953-3 0  2586
2 58233  43.0001 295.8000 0001380 262.6338 354.2437 15.27572079    11

Acompanhe STARLINK-30777 em tempo real com AllMySat

Download on the App Store